Regional Weather Roundup
Issued by NWS State College, PA

Home | Current Version | Previous Version | Text Only | Print | Product List | Glossary Off
Versions: 1 2 3 4 5 6 7 8 9 10 11 12 13 14 15 16 17 18 19 20 21 22 23 24 25 26 27 28 29 30 31 32 33 34 35 36 37 38 39 40 41 42 43 44 45 46 47 48 49 50

490
ASUS41 KCTP 220703
RWRCTP

REGIONAL WEATHER ROUNDUP
NATIONAL WEATHER SERVICE STATE COLLEGE PA
300 AM EDT SUN OCT 22 2017

Note: "fair" indicates few or no clouds below 12,000 feet with no
significant weather and/or obstructions to visibility.

* = STATION THAT DOES NOT REPORT PRECIPITATION /E.G. RAIN...SNOW...ETC/
    THUNDER OR FOG.

PAZ002>004-007>009-013>016-020>023-029>032-220800-
WESTERN PENNSYLVANIA

CITY           SKY/WX    TMP DP  RH WIND       PRES   REMARKS
ERIE           PTCLDY    60  48  64 S13       30.23R
MEADVILLE      PTCLDY    57  49  74 CALM      30.27R
FRANKLIN*      PTCLDY    51  46  83 E6        30.28S
NEW CASTLE     FAIR      50  50 100 CALM      30.26S
BEAVER COUNTY  NOT AVBL
BUTLER*        CLOUDY    51  48  89 CALM      30.27S
PITTSBURGH INT CLOUDY    54  50  86 CALM      30.25S
PITTSBURGH     CLEAR     58  48  69 S6        30.26R
INDIANA*       CLEAR     59  48  67 CALM      30.31R
LATROBE        CLEAR     50  48  93 CALM      30.28R
WASHINGTON CO* CLEAR     48  47  96 CALM      30.28S
$$

PAZ004>006-010>012-017>019-024>028-033>037-041-042-045-046-049>053-220800-
CENTRAL PENNSYLVANIA

CITY           SKY/WX    TMP DP  RH WIND       PRES   REMARKS
BRADFORD       CLEAR     48  41  76 SE6       30.31R
DUBOIS         CLEAR     55  41  59 SE9       30.29S
CLEARFIELD     CLEAR     46  43  89 N7        30.32F
JOHNSTOWN      CLEAR     56  46  69 S7        30.31F
ALTOONA        CLEAR     58  42  55 CALM      30.33S
STATE COLLEGE  PTCLDY    49  44  83 CALM      30.33S
WILLIAMSPORT   CLEAR     46  44  93 CALM      30.33F
SELINSGROVE    CLEAR     43  43 100 NW3       30.36S
FT INDIANTOWN  CLEAR     45  45 100 CALM      30.35S
CAPITAL CITY   PTCLDY    49  44  83 CALM      30.35R
HARRISBURG     CLOUDY    48  47  96 E5        30.34S
YORK           NOT AVBL
$$

PAZ038>040-043-044-047-048-054-055-060>062-067>071-220800-
EASTERN PENNSYLVANIA

CITY           SKY/WX    TMP DP  RH WIND       PRES   REMARKS
SCRANTON       CLOUDY    50  42  74 E6        30.36R
MOUNT POCONO   CLOUDY    41  39  93 CALM      30.38R
ALLENTOWN      CLEAR     45  41  86 CALM      30.37R
QUAKERTOWN*    SUNNY     43  41  93 CALM      30.37R
READING        CLEAR     47  47 100 CALM      30.35S
LANCASTER      CLEAR     49  47  93 CALM      30.35S
COATESVILLE    SUNNY     50  46  87 CALM      30.37S
POTTSTOWN      CLEAR     45  44  97 CALM      30.38R
BLUE BELL      CLEAR     41  41 100 CALM      30.37S
DOYLESTOWN     CLEAR     47  44  90 CALM      30.35S
WILLOW GROVE   NOT AVBL
NORTH PHILA    CLEAR     50  46  86 CALM      30.37S
PHILADELPHIA   PTCLDY    54  48  80 CALM      30.36S
$$




USA.gov is the U.S. government's official web portal to all federal, state and local government web resources and services.